CZ-6A DEB, 56261

Orbit data source: Space-Track

CZ-6A DEB, 56261 is space debris in SSO originally from a launch on Fri, 11 Nov 2022 UTC launched from the Taiyaun Space Center, China (TSC). Debris objects in space refer to the collection of defunct objects orbiting the Earth. Examples of debris include non-operational satellites, rocket bodies, and fragments generated from explosions, collisions, or faulty payload assembly.

Loading next visibility...
Identifier
56261, 2022-151ACD
Orbit
SSO
Country
Flag of CNCN / PRC
Related business
Manufacturer
SAST
Mission
Spacecraft
Bus & Motor
Unknown
Mass
Unknown
Launch date (UTC)
2022-11-11 (4 years ago)
Launch vehicle
Unknown
Launch site
Taiyaun Space Center, China (TSC)
Object type
Payload
Rocket body
Debris
Shape & HBR
Unknown shape, 1.1 m
Radar Cross Section
Medium (>0.1 m² and <1 m²)

Expand to show TLE details & history
Last TLE update: 10 hours ago

TLE from 10 hours ago
0 CZ-6A DEB
1 56261U 22151ACD 26220.03022156  .00003358  00000-0  11854-2 0  9992
2 56261  98.8006 242.6487 0041559 136.1963 224.2530 14.34904273179438
Epoch: 2026-08-08T00:43Z
TLE epoch observation values (Epoch: 2026-08-08T00:43:31.142Z)
Latitude
-0.00007°
Longitude
-84.77847°
Altitude
799.675 km
Speed
7.443 km/s
True Right ascension
16h 10m 35s
True Declination
0° 00' 00"
Sunlit
Object was in daylight at epoch
Visualization orbit readout
Latitude
Unknown
Longitude
Unknown
Altitude
Unknown
Speed
Unknown
Apparent Right ascension
Unknown
Apparent Declination
Unknown
Sunlit
N/A
Visualization observer readout
Local Sidereal Time
00:59:47
Azimuth
Unknown
Elevation
Unknown
Doppler factor
Unknown
Orbital elements
Apogee altitude
802.245 km
Perigee altitude
742.81 km
Semi-major axis
7,150.665 km
Eccentricity
0.00416
Inclination
98.8006°
RAAN
242.6487°
Arg. of periapsis
136.1963°
True anomaly
223.92191°
Mean anomaly
224.253°
Eccentric anomaly
224.08733°
Mean motion
3.58941 °/min
Orbital period
100.29 mins
BSTAR
0.0011854
Loading maneuver chart data...
Computing Atmospheric mass density...
Loading historical data...
Loading historical data...
Loading historical data...
Loading historical data...
Loading historical data...
Loading historical data...
Loading historical data...

Documentation

Showing up to 5 results
|